Overview Statistics Trail Chart Weather Telemetry Raw packets
 

This is the latest recevied weather packets stored in our database for station/object N2ZVN. If no packets are shown the sender has not sent any weather packets the latest 10 day(s).

<< 1 2 3 4 5 >>
Time Temp. Humidity Pressure Rain* Wind** Luminosity Snow
1788712608 20° C 75% 1020.5 hPa 0 mm - 623 W/m² -
1788712304 20° C 73% 1020.6 hPa 0 mm - 158 W/m² -
1788712001 20° C 74% 1020.5 hPa 0 mm - 405 W/m² -
1788711700 20° C 75% 1020.5 hPa 0 mm - 92 W/m² -
1788711396 20.56° C 72% 1020.6 hPa 0 mm - 104 W/m² -
1788711094 20.56° C 74% 1020.8 hPa 0 mm - 751 W/m² -
1788710793 21.11° C 74% 1020.7 hPa 0 mm - 164 W/m² -
1788710493 21.11° C 75% 1020.8 hPa 0 mm - 745 W/m² -
1788710190 20.56° C 73% 1020.7 hPa 0 mm - 233 W/m² -
1788709886 20.56° C 73% 1020.6 hPa 0 mm - 756 W/m² -
1788709581 20.56° C 73% 1020.5 hPa 0 mm - 152 W/m² -
1788709280 20° C 75% 1020.7 hPa 0 mm - 751 W/m² -
1788708980 20° C 77% 1020.5 hPa 0 mm - 534 W/m² -
1788708675 20.56° C 76% 1020.5 hPa 0 mm - 126 W/m² -
1788708369 20° C 76% 1020.5 hPa 0 mm - 801 W/m² -
1788708063 20° C 77% 1020.6 hPa 0 mm - 156 W/m² -
1788707758 20° C 79% 1020.4 hPa 0 mm - 208 W/m² -
1788707454 20° C 78% 1020.4 hPa 0 mm - 175 W/m² -
1788707149 20° C 79% 1020.5 hPa 0 mm - 440 W/m² -
1788706844 20° C 79% 1020.2 hPa 0 mm - 180 W/m² -
1788706543 20° C 79% 1020.1 hPa 0 mm - 270 W/m² -
1788706238 20° C 81% 1020.4 hPa 0 mm - 211 W/m² -
1788705932 20° C 80% 1020.2 hPa 0 mm - 156 W/m² -
1788705628 20° C 79% 1020.1 hPa 0 mm - 191 W/m² -
1788705323 19.44° C 81% 1020.3 hPa 0 mm - 159 W/m² -

* Rain latest hour (hover to see other rain measurements)
** Current wind speed in m/s (hover to see current wind gust speed)